STARLINK-32588, 61866

Orbit data source: Space-Track

STARLINK-32588, 61866 is a payload satellite owned by SpaceX/Seattle (US) in LEO that was launched on Thu, 07 Nov 2024 UTC via an FALCON 9 launch vehicle from the Air Force Eastern Test Range (AFETR). Payload-class satellites include a variety of spacecraft equipped with specific instruments for various scientific and technological missions. These include communications satellites like Starlink; space stations such as the ISS; scientific satellites like the Hubble; Earth observation satellites from companies like Planet Labs, Umbra, and HawkEye 360; GPS; miniature CubeSats for education and research; and military/defense satellites.

Loading next visibility...
Identifier
61866, 2024-202X
Orbit
LEO
Country
Flag of USUS
Related business
Manufacturer
SpaceX/Seattle
Mission
Operational Commercial Communications
Bus & Motor
STARLINK V2M, Unknown motor
Mass
730 kg wet, ~700 kg dry
Launch date (UTC)
2024-11-07 (1 year ago)
Launch vehicle
FALCON 9
Launch site
Air Force Eastern Test Range (AFETR)
Object type
Payload
Rocket body
Debris
Shape & HBR
Box + 2 Pan, 17.7 m
Radar Cross Section
33.884 m², Large (>1 m²)

Expand to show TLE details & history
Last TLE update: 18 hours ago

TLE from 18 hours ago
0 STARLINK-32588
1 61866U 24202X   25351.03536317  .00001385  00000-0  59833-4 0  9990
2 61866  43.0025 345.0411 0000734 268.5860  91.4908 15.27587223 62696
Epoch: 2025-12-17T00:50Z
TLE epoch observation values (Epoch: 2025-12-17T00:50:55.377Z)
Latitude
-0.00001°
Longitude
-113.60065°
Altitude
482.816 km
Speed
7.626 km/s
True Right ascension
23h 00m 09s
True Declination
0° 00' 00"
Sunlit
Object was in daylight at epoch
Visualization orbit readout
Latitude
Unknown
Longitude
Unknown
Altitude
Unknown
Speed
Unknown
Apparent Right ascension
Unknown
Apparent Declination
Unknown
Sunlit
N/A
Visualization observer readout
Local Sidereal Time
17:50:32
Azimuth
Unknown
Elevation
Unknown
Doppler factor
Unknown
Orbital elements
Apogee altitude
485.476 km
Perigee altitude
484.468 km
Semi-major axis
6,863.109 km
Eccentricity
0.00007
Inclination
43.0025°
RAAN
345.0411°
Arg. of periapsis
268.586°
True anomaly
91.49921°
Mean anomaly
91.4908°
Eccentric anomaly
91.495°
Mean motion
3.81735 °/min
Orbital period
94.31 mins
BSTAR
0.000059833
Loading maneuver chart data...
Computing Atmospheric mass density...
Loading historical data...
Loading historical data...
Loading historical data...
Loading historical data...
Loading historical data...
Loading historical data...
Loading historical data...

Documentation

Showing up to 5 results
|